This demonstration page uses our WeatherBlox Daily Observations layout. Learn more.

36.17497, -115.13722

Hourly Observations for August 6, 2018

Temp ( °F °C ) Dew Point ( °F °C ) Humidity (%) Winds ( mph kmh ) Pressure ( in mb ) Visibility ( mi km ) Precip ( " mm )
12:53 am 00:53 Clear 87 30.6 26 -3.3 11 11 ENE 9 15 29.77 1008 10 16.0934 0 0
1:53 am 01:53 Clear 86 30 29 -1.7 13 13 ESE 3 6 29.78 1008 10 16.0934 0 0
2:53 am 02:53 Clear 82 27.8 30 -1.1 15 15 WNW 6 9 29.79 1009 10 16.0934 0 0
3:53 am 03:53 Clear 84 28.9 31 -0.6 15 15 NW 6 9 29.8 1009 10 16.0934 0 0
4:53 am 04:53 Clear 80 26.7 26 -3.3 14 14 N 5 7 29.8 1009 10 16.0934 0 0
5:53 am 05:53 Sunny 79 26.1 28 -2.2 15 15 NW 3 6 29.83 1010 10 16.0934 0 0
6:53 am 06:53 Sunny 82 27.8 33 0.6 17 17 Calm 29.85 1011 10 16.0934 0 0
7:53 am 07:53 Sunny 86 30 31 -0.6 14 14 WNW 5 7 29.87 1012 10 16.0934 0 0
8:53 am 08:53 Sunny 92 33.3 30 -1.1 11 11 NNE 3 6 29.88 1012 10 16.0934 0 0
9:53 am 09:53 Sunny 95 35 27 -2.8 9 9 E 5 7 29.89 1012 10 16.0934 0 0
10:53 am 10:53 Sunny 99 37.2 25 -3.9 7 7 ENE 7 11 29.88 1012 10 16.0934 0 0
11:53 am 11:53 Sunny 101 38.3 25 -3.9 7 7 SE 9 15 29.87 1012 10 16.0934 0 0
12:53 pm 12:53 Sunny 103 39.4 25 -3.9 6 6 E 7 11 29.85 1011 10 16.0934 0 0
1:53 pm 13:53 Sunny 105 40.6 26 -3.3 6 6 SSE 7 11 29.83 1010 10 16.0934 0 0
2:53 pm 14:53 Sunny 105 40.6 26 -3.3 6 6 SE 5 7 29.8 1009 10 16.0934 0 0
3:53 pm 15:53 Sunny 106 41.1 26 -3.3 6 6 VRB 6 9 29.78 1009 10 16.0934 0 0
4:53 pm 16:53 Sunny 108 42.2 27 -2.8 6 6 VRB 6 9 29.76 1008 10 16.0934 0 0
5:53 pm 17:53 Sunny 107 41.7 27 -2.8 6 6 E 6 9 29.75 1007 10 16.0934 0 0
6:53 pm 18:53 Sunny 106 41.1 27 -2.8 6 6 SE 8 13 29.74 1007 10 16.0934 0 0
7:53 pm 19:53 Clear 102 38.9 28 -2.2 7 7 SE 6 9 29.75 1007 10 16.0934 0 0
8:53 pm 20:53 Clear 99 37.2 29 -1.7 8 8 W 3 6 29.76 1008 10 16.0934 0 0
9:53 pm 21:53 Clear 96 35.6 35 1.7 12 12 N 7 11 29.77 1008 10 16.0934 0 0
10:53 pm 22:53 Clear 93 33.9 34 1.1 12 12 NW 6 9 29.77 1008 10 16.0934 0 0
11:53 pm 23:53 Clear 90 32.2 34 1.1 14 14 NW 6 9 29.78 1009 10 16.0934 0 0

Powered by AerisWeather